星链-6320 (STARLINK-6320 )

导读

STARLINK-6320是由美国发射的星链卫星,于北京时间2023年7月16日8点成功发射。它隶属于SpaceX打造的星链卫星互联网星座,主要为全球各地提供高速卫星互联网接入服务,尤其为偏远地区、移动载体等传统网络难以覆盖区域补充网络连接,是星链大规模组网进程中的一员,推动星座服务能力持续完善。

基本信息
目录编号:
57336
目录名称:
STARLINK-6320
国际标识:
2023-099J
轨道中心:
EARTH
卫星名称:
星链-6320
卫星全名:
星链-6320 (STARLINK-6320 )
卫星状态:
在轨 (已飞行1153 天)
发射日期:
2023-07-16 UTC
国别 :
美国 (US)
星等 :
--
该卫星已列入 空间交会检测服务 Space Conjunction Data Service (SCDS) ,当前飞行风险评估等级: 无高风险
轨道信息
数据来源 国际轨道数据 AOE轨道数据
星历时间 2026-09-11T10:59:45+0800
18小时前
查看轨道信息
2026-09-10T12:00:00+0800
1天前
查看轨道信息
半长轴 6861.199km 6861.136km
偏心率 0.000115 0.0001188
轨道倾角 43.003° 43.001°
近地点辐角 293.975° 289.994°
升交点赤经 281.966° 287.381°
平近点角 66.098° 194.730°
近地点 482.272km 482.183km
远地点 483.852km 483.815km
周期 94.267分钟 94.266分钟
每日圈数 15.275757 15.275968
详细信息
固有亮度:
5
最大亮度:
2.5
卫星平台:
Starlink v1.5
覆盖范围:
全球
运营商:
太空探索技术公司
运营商所在国:
美国
制造商(研发单位):
太空探索技术公司
制造商所在国:
美国
使用方式:
暂无
卫星简介
星链(Starlink)计划是由太空探索技术公司(SpaceX)提出的一个巨型低轨卫星互联网星座项目,计划在2019年至2024年间在太空搭建由约1.2万颗卫星组成的“星链”网络,其中1584颗将部署在地球上空550千米处的近地轨道,并从2020年开始工作。该卫星仍在工作。
2D轨道图
3D轨道图
轨道高度分析图
轨道倾角分析图
轨道综合分析图
查看轨道综合分析图
交会数据列表
事件ID 空间交会对象 最接近时刻(TCA) 交会距离 交会风险概率(CRP) 交会风险指数(CRI) 操作
CDM_260912-131805-733606-656421
2026-09-12T
13:18:05+0000
0.432 km
远距离
1.96181E-4 高风险 0.81
CDM_260913-072005-733606-656421
2026-09-13T
07:20:51+0000
0.749 km
远距离
4.523324E-5 中风险 0.68
CDM_260913-085505-733606-656421
2026-09-13T
08:55:00+0000
0.925 km
远距离
2.2618E-5 中风险 0.62
CDM_260912-145205-733606-656421
2026-09-12T
14:52:14+0000
1.042 km
极远距离
1.502376E-5 中风险 0.59
CDM_260912-061105-733606-731622
2026-09-12T
06:11:40+0000
1.041 km
极远距离
1.305756E-5 中风险 0.57
CDM_260911-195905-733606-731621
2026-09-11T
19:59:40+0000
1.134 km
极远距离
9.720044E-6 低风险 0.55
CDM_260911-182505-733606-731624
2026-09-11T
18:25:31+0000
1.568 km
极远距离
3.320679E-6 低风险 0.45
CDM_260912-114305-733606-656422
2026-09-12T
11:43:55+0000
1.722 km
极远距离
2.866748E-6 低风险 0.44
CDM_260913-054605-733606-656422
2026-09-13T
05:46:42+0000
2.296 km
极远距离
1.414868E-6 低风险 0.38
CDM_260912-074505-733606-731621
2026-09-12T
07:45:49+0000
2.215 km
极远距离
1.349251E-6 低风险 0.38
与全量物体交会距离演化趋势
与全量物体交会风险概率演化趋势